#timestamp,LO_Frequency,Hit,StdDev 
1649160015.6,286046991.9,N
1649160035.5,286046992.4,N
1649160055.3,286046993.2,N
1649160075.1,286046991.6,N
1649160095.9,286046991.0,N
1649160115.7,286046988.5,N
1649160135.5,286046991.3,N
1649160155.4,286046991.4,N
1649160175.2,286046988.6,N
1649160195.0,286046989.3,N
1649160195.9,286046989.9,N
1649160215.8,286046987.6,Y
1649160235.6,286046993.0,P
1649160255.4,286046992.4,P
1649160275.3,286046993.2,P
1649160295.1,286046989.1,Y
1649160296.0,286046988.7,P
1649160315.8,286046995.4,N
1649160335.7,286046995.6,N
1649160355.5,286046997.2,N
1649160375.3,286046996.6,N
1649160395.2,286046996.7,N
1649160415.9,286046997.2,N
1649160435.7,286046995.1,N
1649160455.6,286046995.4,N
1649160475.4,286046997.9,N
1649160495.2,286046996.9,N
1649160515.1,286046997.1,N
1649160516.0,286046997.4,N
1649160535.8,286046997.7,N
1649160555.6,286047001.0,N
1649160575.5,286046998.2,N
1649160595.3,286046998.4,N
1649160615.1,286047000.8,N
1649160635.9,286046997.0,N
1649160655.7,286046996.6,N
1649160675.5,286047000.0,N
1649160695.4,286047000.8,N
1649160715.2,286047000.5,N
1649160735.0,286047000.1,N
1649160735.9,286047000.6,N
1649160755.8,286046999.6,N
1649160775.6,286046996.0,N
1649160795.4,286046993.9,N
1649160815.3,286046990.4,Y
1649160835.1,286046994.0,P
1649160855.8,286046994.4,P
1649160875.7,286046989.4,P
1649160895.5,286046982.8,Y
1649160915.3,286046987.2,P
1649160935.2,286046989.5,P
1649160955.0,286046990.6,P
1649160955.9,286046992.2,Y
1649160975.7,286047005.6,P
1649160995.6,286047001.9,N
1649161015.4,286047001.7,N
1649161035.2,286047006.1,N
1649161055.1,286047009.2,N
1649161056.0,286047005.7,N
1649161075.8,286047006.6,N
1649161095.6,286047004.7,N
1649161115.5,286047009.4,N
1649161135.3,286047011.9,N
1649161155.1,286047006.6,N
1649161175.9,286047007.1,N
1649161195.7,286047006.1,N
1649161215.5,286047009.5,N
1649161235.4,286047010.3,N
1649161255.2,286047008.8,N
1649161275.0,286047008.4,N
1649161276.0,286047010.6,N
1649161295.8,286047008.7,N
1649161315.6,286047006.6,N
1649161335.5,286047007.8,N
1649161355.3,286047008.1,N
1649161375.1,286047007.4,N
1649161395.9,286047002.6,N
1649161415.7,286047001.2,N
1649161435.5,286047001.5,N
1649161455.4,286047005.3,N
1649161475.2,286047008.5,N
1649161495.0,286047011.9,N
1649161495.9,286047011.3,N
1649161515.8,286047010.2,Y
1649161535.6,286046997.3,P
1649161555.4,286047011.9,N
1649161575.3,286046998.7,N
1649161595.1,286046999.5,N
1649161596.0,286046995.1,N
1649161615.8,286046993.2,N
1649161635.7,286046991.2,N
1649161655.5,286046990.8,N
1649161675.3,286046994.4,N
1649161695.2,286046992.2,N
1649161715.9,286046992.8,N
1649161735.7,286046992.9,N
1649161755.6,286046994.2,N
1649161775.4,286046992.7,N
1649161795.2,286046989.0,N
1649161815.1,286046996.2,N
1649161816.0,286046993.8,N
1649161835.8,286046990.7,N
1649161855.6,286046988.0,N
1649161875.5,286046985.1,N
1649161895.3,286046983.9,N
1649161915.1,286046984.9,N
1649161935.9,286046986.8,N
1649161955.7,286046982.8,N
1649161975.5,286046981.6,N
1649161995.4,286046977.3,Y
1649162015.2,286046989.5,P
1649162035.0,286046987.0,P
1649162035.9,286046991.5,P
1649162055.8,286046986.3,Y
1649162075.6,286047002.6,P
1649162095.4,286047003.8,N
1649162115.3,286047003.2,N
1649162135.1,286046999.7,N
1649162155.9,286047003.1,N
1649162175.7,286047003.4,N
1649162195.5,286046999.5,N
1649162215.4,286047000.4,N
1649162235.2,286047001.5,N
1649162255.0,286047000.9,N
1649162255.9,286046996.6,N
1649162275.8,286046990.6,N
1649162295.6,286046993.2,N
1649162315.4,286046989.6,N
1649162335.3,286046990.6,N
1649162355.1,286046990.5,N
1649162356.0,286046991.5,N
1649162375.8,286046992.6,N
1649162395.7,286046994.9,N
1649162415.5,286046997.1,N
1649162435.3,286046996.6,N
1649162455.2,286046994.2,N
1649162475.9,286046996.0,N
1649162495.7,286046995.5,N
1649162515.6,286046995.6,N
1649162535.4,286046997.6,N
1649162555.2,286046997.8,N
1649162575.1,286046990.2,N
1649162576.0,286046993.0,N
1649162595.8,286046991.8,N
1649162615.6,286046992.7,N
1649162635.5,286046987.4,N
1649162655.3,286046988.0,N
1649162675.1,286046982.7,Y
1649162695.9,286046986.5,P
1649162715.7,286046986.3,P
1649162735.5,286046983.8,P
1649162755.4,286046982.8,Y
1649162775.2,286046999.3,P
1649162795.0,286046994.9,N
1649162795.9,286046997.2,N
1649162815.8,286047000.4,N
1649162835.6,286047003.8,N
1649162855.4,286047006.5,N
1649163005.7,286047018.2,E
1649163015.7,286047001.6,N
1649163035.5,286047000.0,P
1649163055.3,286047001.1,N
1649163075.2,286046996.7,Y
1649163095.0,286046996.4,P
1649163095.9,286046996.4,N
1649163115.8,286046996.8,N
1649163135.6,286046993.3,Y
1649163155.4,286046995.9,P
1649163175.3,286046988.7,P
1649163195.1,286046993.1,N
1649163215.9,286046992.1,N
1649163235.7,286046998.0,N
1649163255.5,286046996.5,N
1649163275.4,286046998.0,N
1649163295.2,286046994.3,N
1649163315.1,286046988.8,Y
1649163316.0,286046988.8,P
1649163335.8,286046992.8,N
1649163355.6,286046994.0,N
1649163375.5,286046995.1,N
1649163395.3,286046995.2,N
1649163415.1,286046993.9,N
1649163435.9,286046994.1,N
1649163455.7,286046990.2,Y
1649163475.6,286046995.2,P
1649163495.4,286046992.9,P
1649163515.2,286046990.9,P
1649163535.1,286046987.2,Y
1649163536.0,286046987.2,P
1649163555.8,286046998.2,N
1649163575.7,286046998.5,N
1649163595.5,286046997.4,N
